Theta_e
328 328 326 325 321 319 321 321 320 319 319 318 318 317 317 313 310 310 311 312 315 316 315 315 313 315 315 315 315 315 315 317 319 321 323 325 325 328 327 328 329 333 335
327 326 324 322 322 322 322 321 320 320 319 319 318 317 316 313 310 310 311 312 316 316 315 314 315 315 315 314 315 315 314 315 317 318 319 322 325 325 328 328 330 330 333
326 325 322 324 326 325 323 321 321 321 320 319 317 316 315 312 310 310 311 313 315 314 312 311 314 315 316 316 314 316 315 314 314 316 317 319 322 324 325 332 333 331 330
326 324 325 325 325 324 323 323 322 322 321 319 317 315 314 311 310 310 311 313 314 314 312 312 313 313 314 314 314 314 315 315 315 314 314 316 320 323 325 326 328 331 330
324 326 326 326 325 324 323 323 323 322 319 317 315 314 313 311 310 309 309 309 310 310 311 312 313 313 313 313 313 314 314 314 315 315 314 314 316 321 326 325 328 329 329
325 326 326 325 324 323 323 323 322 319 317 315 314 313 312 311 310 309 307 308 309 309 309 310 310 311 312 312 313 313 313 313 314 316 315 315 315 316 322 325 325 327 324
325 325 325 324 324 323 322 322 319 317 315 314 314 312 310 309 307 307 308 308 310 308 308 307 309 310 309 311 311 312 312 313 313 313 313 314 315 315 317 324 324 326 327
326 325 324 323 323 323 322 319 317 316 315 314 311 309 307 306 307 307 305 306 308 307 306 306 306 307 308 308 309 309 310 310 312 313 313 314 316 316 314 322 323 323 324
325 324 324 323 323 322 319 317 317 315 314 309 306 306 308 307 307 307 307 307 308 307 307 307 307 307 307 307 308 308 309 309 309 311 311 312 314 315 315 316 321 322 324
325 324 323 323 321 318 317 316 315 312 307 305 308 307 307 307 307 307 307 307 307 306 305 305 306 306 308 308 308 308 309 311 310 311 311 312 313 315 315 314 317 319 323
324 322 321 320 319 318 316 314 308 305 307 307 306 307 306 306 306 306 306 305 305 304 303 304 305 307 308 309 307 307 308 309 309 309 310 310 312 313 314 314 313 318 320
322 321 321 320 318 315 311 306 306 308 307 306 306 306 305 304 304 305 305 305 305 303 305 309 312 313 314 314 312 310 309 306 308 309 310 310 310 311 313 315 313 315 319
321 320 319 317 314 308 305 308 307 306 306 306 305 304 303 304 305 306 307 307 306 306 310 312 313 314 313 313 315 316 311 303 303 305 308 308 309 310 313 314 314 314 318
319 317 316 313 306 306 307 307 306 305 304 304 303 303 303 305 306 306 307 307 309 311 311 311 313 312 310 310 310 312 311 306 302 303 304 307 309 310 312 314 314 314 317
315 313 307 305 307 307 306 305 305 304 303 303 302 302 303 306 307 306 306 309 309 310 308 310 310 309 309 310 311 312 308 304 301 302 303 308 309 310 313 314 316 315 320
309 306 306 307 306 305 305 304 303 302 303 303 304 305 307 306 308 310 311 312 313 312 309 307 307 306 306 306 307 308 309 306 303 302 304 308 309 311 315 318 317 318 319
304 305 305 304 304 304 302 301 301 304 304 305 306 307 307 309 310 311 312 314 315 314 310 305 304 304 304 305 307 308 310 311 305 303 305 307 310 313 318 318 319 318 320
304 304 304 302 302 301 301 302 303 304 304 306 307 307 309 311 312 313 314 315 315 314 306 303 303 303 304 308 309 312 312 307 304 303 305 308 312 315 318 318 319 319 319
304 302 301 301 301 301 303 303 304 304 304 304 306 308 309 311 314 313 312 311 309 307 305 304 303 305 309 310 309 309 307 304 303 304 306 309 313 318 319 319 319 318 318
303 302 302 301 301 302 303 303 304 303 303 303 304 305 309 312 313 312 311 311 308 308 306 304 305 308 310 313 308 304 303 303 304 307 309 312 317 320 318 319 320 319 319
303 303 302 301 302 302 302 302 302 302 302 303 303 305 306 306 306 307 308 309 308 309 307 304 307 312 311 310 307 306 305 306 308 310 312 315 320 319 320 320 320 320 319
303 302 301 301 301 300 301 301 302 302 302 302 303 305 306 306 306 307 308 310 311 310 307 305 310 313 314 314 310 309 308 309 310 312 313 317 320 319 320 319 319 318 318
303 302 301 300 300 300 300 300 300 301 301 302 302 303 304 304 305 306 307 310 311 311 310 309 314 323 318 315 316 315 313 313 313 316 314 316 319 320 320 320 320 319 319
303 302 300 300 299 299 299 299 299 299 300 300 301 301 302 302 304 305 307 310 311 311 310 312 314 321 322 319 319 318 317 319 317 318 317 320 320 319 320 320 320 320 319
302 301 299 299 298 298 299 298 298 298 298 298 299 299 300 301 302 304 306 308 310 310 312 312 312 315 322 323 323 321 320 319 319 321 320 320 320 320 320 320 320 320 319
301 299 298 298 298 298 298 298 298 297 297 297 297 298 299 300 301 303 304 306 308 310 311 313 314 315 317 319 322 323 322 321 320 320 319 319 319 318 319 320 320 320 319
Wind_Speed
31 23 19 19 26 26 23 22 23 21 21 23 25 26 27 28 27 27 27 27 28 29 29 33 27 23 26 27 28 28 28 29 32 30 23 17 13 16 19 14 14 16 22
24 17 16 18 21 22 21 21 20 21 23 25 26 28 29 29 28 28 29 28 29 32 33 34 31 28 27 27 26 24 26 26 27 30 28 24 19 16 18 19 19 14 20
19 16 18 19 20 21 21 21 22 25 26 27 28 30 30 30 30 30 31 31 33 36 37 35 31 30 30 29 27 25 23 23 27 31 30 26 24 18 18 18 20 15 16
17 18 19 19 20 20 21 23 25 27 29 30 31 31 32 32 32 33 33 34 37 39 39 32 31 31 31 32 32 31 28 25 24 25 26 29 26 19 21 20 22 23 20
27 26 25 23 22 21 23 24 26 29 31 31 32 34 34 35 36 37 37 40 42 43 37 32 32 32 33 34 33 33 32 31 28 27 25 21 28 23 21 20 27 26 29
30 30 26 23 23 22 22 22 28 30 31 32 34 36 39 41 40 39 40 40 39 37 38 39 39 39 39 38 37 37 37 37 33 29 32 29 23 29 20 23 29 29 31
33 33 30 27 25 23 22 23 26 29 31 34 38 41 42 43 42 42 36 34 35 36 37 39 40 40 39 39 37 37 38 41 40 40 41 39 33 26 23 28 30 35 31
31 29 26 23 20 19 21 25 28 32 36 39 40 41 43 43 40 36 34 33 35 38 39 38 39 39 38 38 40 37 41 42 40 40 41 42 36 34 27 28 29 31 36
25 22 21 19 20 22 24 28 32 35 38 39 39 39 37 36 32 27 26 27 31 34 34 35 35 36 37 34 32 37 42 46 40 38 41 37 34 37 32 34 29 42 41
17 20 19 19 20 23 27 30 33 35 37 36 34 34 32 32 29 27 28 30 34 37 40 41 41 40 39 37 36 38 41 42 39 41 38 37 36 36 38 37 35 40 41
18 16 15 18 21 25 28 30 31 33 32 32 32 31 31 30 31 33 34 41 45 46 47 48 45 43 42 45 47 48 51 47 46 43 40 40 40 40 41 39 43 34 42
17 16 18 21 25 26 26 28 27 27 28 28 29 33 39 41 42 44 41 35 33 35 39 39 40 41 43 44 44 46 45 45 46 46 45 41 45 42 42 44 43 45 42
17 19 20 23 23 23 23 21 24 23 23 27 34 36 42 43 44 42 37 35 37 40 41 43 45 46 47 47 47 46 45 43 44 52 56 51 47 44 41 39 38 45 45
18 19 22 20 19 16 16 19 20 23 27 28 32 38 42 43 42 39 40 41 42 42 42 44 45 49 49 49 47 46 44 43 44 49 52 47 44 41 40 41 40 46 45
18 17 13 12 12 14 15 17 22 22 26 31 32 36 38 39 39 37 37 39 37 38 37 40 43 43 43 41 40 39 37 39 40 44 44 43 47 42 41 43 47 49 45
13 10 10 11 11 11 17 21 20 24 23 26 25 24 27 29 32 32 31 30 30 30 32 37 38 36 38 38 38 37 37 34 37 43 48 45 46 42 43 47 46 52 48
7 8 8 9 11 14 14 19 24 24 21 22 21 21 22 27 26 24 25 29 31 34 37 39 38 38 39 36 34 34 41 37 36 46 48 47 48 40 46 45 46 50 49
2 4 7 8 6 9 13 16 19 23 26 26 22 22 22 23 23 22 27 31 37 39 39 39 40 39 36 30 28 27 29 33 39 47 52 48 55 40 50 48 48 50 51
2 3 3 3 6 10 10 13 17 20 22 23 25 24 24 21 23 26 31 37 40 44 45 44 40 32 29 27 23 24 27 34 40 45 46 50 57 40 50 48 49 49 50
3 7 9 6 7 8 11 14 17 20 21 23 24 25 25 26 29 34 37 39 42 44 44 43 35 27 21 9 9 12 23 32 38 42 46 53 40 51 48 50 52 53 51
1 3 6 6 6 9 12 14 17 19 22 24 24 23 24 29 33 35 39 42 44 44 43 40 30 17 1 3 11 13 22 32 38 38 46 56 33 44 46 49 50 48 48
1 1 6 4 6 9 12 15 16 17 20 24 26 24 27 30 33 36 39 40 42 44 42 38 24 16 9 5 15 18 24 31 36 39 52 48 36 41 41 41 45 46 47
5 1 5 6 6 10 12 14 18 20 20 23 26 27 28 32 34 36 38 39 43 45 44 41 28 17 8 11 12 18 23 30 35 33 44 50 34 40 44 41 44 43 44
5 1 4 7 7 9 12 13 18 22 24 24 24 27 28 31 32 34 36 39 43 46 46 43 35 17 16 15 14 13 20 30 32 32 38 41 39 40 40 41 38 41 44
2 7 7 10 12 10 14 19 21 23 26 26 26 26 27 28 30 33 36 38 41 45 47 46 41 34 8 15 16 14 19 24 33 31 32 34 35 32 38 41 37 42 44
13 12 18 16 17 18 18 18 19 20 21 22 24 26 26 28 29 31 35 39 41 42 44 45 45 40 34 25 14 20 18 16 19 25 29 32 31 33 37 37 38 38 41
Wind_Direction
209 212 223 234 220 229 241 250 260 271 285 291 295 302 308 312 312 307 304 301 296 297 299 299 296 287 281 278 276 275 272 267 275 277 274 285 293 291 291 282 271 256 242
203 220 227 221 228 239 248 258 275 286 290 295 297 300 305 307 307 304 301 297 291 291 294 292 286 290 286 286 280 276 271 268 269 277 274 267 272 290 281 271 267 255 246
201 217 223 231 241 249 258 269 277 283 288 297 299 300 303 305 305 303 300 296 290 290 293 291 276 277 280 282 281 280 275 273 269 268 272 264 265 280 284 258 245 241 253
213 223 233 239 248 256 263 267 276 288 295 295 295 299 303 303 301 300 297 292 290 289 292 285 276 274 273 274 275 280 275 275 274 276 275 265 256 265 269 259 231 231 237
210 222 229 238 243 246 253 261 277 286 288 296 298 299 301 302 301 300 297 293 289 288 285 281 276 272 272 273 272 270 266 270 273 273 275 274 254 253 249 252 235 234 225
208 216 219 220 226 238 249 262 281 291 293 292 295 298 298 298 298 297 294 288 285 284 281 273 269 268 268 267 264 265 261 261 259 265 265 262 262 250 261 242 233 215 212
210 213 218 225 226 233 251 275 283 281 282 286 290 293 294 295 297 298 299 292 285 286 286 285 281 276 273 269 267 266 263 259 257 258 259 258 255 255 243 240 231 236 232
199 198 204 212 221 240 263 275 274 276 284 289 293 294 295 297 299 301 303 298 289 288 286 284 280 277 274 269 269 269 262 261 257 257 251 251 249 249 246 247 239 239 227
186 193 207 216 235 253 267 274 279 284 289 292 295 297 300 302 309 314 310 302 295 292 290 288 285 281 277 274 272 264 261 262 261 256 257 253 248 244 246 233 228 220 221
191 208 215 233 256 271 278 282 285 290 293 296 301 307 310 311 316 310 302 296 292 292 291 288 285 282 281 278 273 268 267 266 259 254 255 251 246 236 235 234 228 218 216
210 221 236 258 272 278 283 288 291 294 299 308 308 310 312 307 300 295 291 287 289 290 285 282 280 278 277 276 273 269 266 269 263 258 253 250 244 243 229 229 225 222 222
226 243 261 275 283 288 289 290 293 302 305 309 310 303 301 305 312 313 308 302 296 292 288 287 285 284 284 279 273 268 264 258 254 248 245 238 240 240 231 225 225 225 232
243 255 269 283 284 287 292 297 301 304 305 301 302 306 310 315 314 312 314 313 309 306 301 298 295 291 288 282 276 272 269 257 240 239 236 240 232 229 230 226 226 223 225
254 266 280 281 288 293 298 302 301 301 302 304 307 309 312 312 312 317 314 311 307 303 301 301 295 292 290 288 283 277 269 257 239 229 229 224 222 221 219 224 213 212 215
264 275 279 285 286 290 293 289 295 294 300 305 306 309 307 309 313 311 309 307 305 303 304 295 296 297 292 288 284 278 269 255 237 225 219 212 212 213 210 212 198 202 206
260 260 271 278 292 284 285 291 291 303 316 310 311 307 306 308 314 313 312 309 316 322 313 308 307 304 299 295 288 280 272 252 233 214 208 205 209 203 201 186 192 198 198
254 262 276 273 275 292 301 314 324 331 330 326 332 324 326 326 327 324 321 325 332 331 329 323 309 306 300 292 281 265 261 251 226 207 199 201 199 195 191 185 187 198 198
241 271 300 290 308 319 331 337 332 337 342 339 345 346 343 341 339 344 344 343 345 345 338 323 317 313 305 292 288 264 246 230 214 200 196 195 189 192 181 183 182 185 191
221 348 2 34 355 347 348 349 351 350 350 351 353 357 359 354 356 1 5 2 353 348 342 336 331 322 317 303 279 253 233 211 198 190 188 189 185 193 181 181 187 188 192
58 25 34 16 2 1 7 6 6 2 4 7 9 6 1 6 7 7 9 3 360 355 350 344 338 340 335 322 255 202 192 188 181 179 179 179 182 182 186 187 186 189 195
123 20 11 9 7 23 21 21 18 15 17 18 18 19 22 18 15 11 10 7 5 2 358 353 350 1 36 89 129 167 172 171 169 172 176 175 180 175 178 179 185 186 192
181 351 18 24 18 17 20 26 19 17 19 21 22 21 25 25 21 16 15 12 11 11 9 6 9 38 153 135 142 153 160 164 170 168 177 175 175 178 181 187 192 193 195
200 301 29 18 2 9 30 34 27 27 27 28 27 25 24 26 24 22 19 18 21 18 19 22 31 55 163 162 143 152 156 160 164 164 179 184 176 173 186 192 192 194 198
172 6 15 20 26 40 46 35 35 34 32 29 27 26 24 25 24 24 25 26 26 26 28 32 38 51 102 166 174 159 165 163 169 171 171 177 181 191 196 200 200 204 201
135 15 34 76 72 60 47 45 39 35 30 27 26 26 26 26 27 27 32 33 33 31 32 36 40 51 83 140 162 168 172 174 179 181 183 194 192 193 198 200 208 206 204
43 55 97 86 70 65 54 40 32 32 30 27 33 33 33 33 33 33 36 39 39 39 36 37 41 45 56 70 135 166 172 173 190 194 201 208 205 205 203 204 207 209 208